Location: Unspecified
(41.2000°S, 0.0000°E)
Time: 16:01:23
(UTC+00:00)

Vanguard 2 Rocket - All Passes

Search period start: 04 April 2026 00:00
Search period end: 14 April 2026 00:00
Orbit: 554 x 3286 km, 32.9° (Epoch: 29 March)

Date Brightness Start Highest point End Pass type
(mag) Time Alt. Az. Time Alt. Az. Time Alt. Az.
4 Apr - 09:07:04 10° NNW 09:20:43 35° NE 09:37:26 10° E daylight
4 Apr - 11:18:41 10° NW 11:36:25 59° NNE 11:55:07 10° E daylight
4 Apr - 13:34:01 10° W 13:53:47 66° N 14:10:12 10° ENE daylight
4 Apr - 15:51:45 10° W 16:09:56 48° NNW 16:22:44 10° NE daylight
4 Apr - 18:12:47 10° W 18:22:59 20° NW 18:30:47 10° N visible
5 Apr - 08:03:46 10° N 08:14:38 25° NE 08:28:13 10° E daylight
5 Apr - 10:13:09 10° NW 10:29:01 51° NNE 10:47:50 10° E daylight
5 Apr - 12:27:02 10° WNW 12:46:00 66° N 13:04:05 10° E daylight
5 Apr - 14:43:41 10° W 15:03:06 58° NNW 15:17:56 10° NE daylight
5 Apr - 17:02:48 10° W 17:17:37 31° NW 17:28:19 10° NNE daylight
6 Apr - 07:02:43 10° NNE 07:09:10 14° NE 07:16:42 10° E daylight
6 Apr - 09:08:26 10° NNW 09:22:09 42° NNE 09:39:53 10° E daylight
6 Apr - 11:20:42 10° WNW 11:38:13 63° NNE 11:57:22 10° E daylight
6 Apr - 13:36:09 10° W 13:55:41 64° N 14:12:28 10° ENE daylight
6 Apr - 15:53:57 10° W 16:11:35 42° NNW 16:24:35 10° NNE daylight
6 Apr - 18:16:53 10° W 18:24:19 15° NW 18:30:35 10° NNW visible
7 Apr - 08:04:37 10° NNW 08:15:59 30° NE 08:31:06 10° E daylight
7 Apr - 10:15:04 10° NW 10:30:42 57° NNE 10:50:03 10° E daylight
7 Apr - 12:29:12 10° WNW 12:47:55 67° N 13:06:20 10° ENE daylight
7 Apr - 14:45:49 10° W 15:04:50 52° NNW 15:19:57 10° NE daylight
7 Apr - 17:05:34 10° W 17:19:00 25° NW 17:29:22 10° N daylight
8 Apr - 07:02:11 10° N 07:10:27 19° NE 07:21:02 10° E daylight
8 Apr - 09:10:08 10° NW 09:23:44 48° NNE 09:42:08 10° E daylight
8 Apr - 11:22:52 10° WNW 11:40:05 66° N 11:59:33 10° E daylight
8 Apr - 13:38:20 10° W 13:57:30 60° NNW 14:14:34 10° ENE daylight
8 Apr - 15:56:18 10° W 16:13:04 36° NW 16:26:05 10° NNE daylight
9 Apr - 08:06:00 10° NNW 08:17:27 37° NE 08:33:35 10° E daylight
9 Apr - 10:17:10 10° WNW 10:32:31 61° NNE 10:52:10 10° E daylight
9 Apr - 12:31:27 10° W 12:49:48 65° N 13:08:28 10° ENE daylight
9 Apr - 14:48:04 10° W 15:06:27 47° NNW 15:21:43 10° NE daylight
9 Apr - 17:08:59 10° W 17:20:18 19° NW 17:29:39 10° N daylight
10 Apr - 07:02:51 10° N 07:11:51 25° NE 07:24:14 10° E daylight
10 Apr - 09:12:07 10° NW 09:25:26 53° NNE 09:44:14 10° E daylight
10 Apr - 11:25:09 10° WNW 11:42:00 66° N 12:01:39 10° ENE daylight
10 Apr - 13:40:35 10° W 13:59:15 55° NNW 14:16:28 10° NE daylight
10 Apr - 15:58:57 10° W 16:14:26 30° NW 16:27:09 10° NNE daylight
11 Apr - 06:01:42 10° NNE 06:06:51 14° NE 06:13:05 10° ENE visible
11 Apr - 08:07:45 10° NW 08:19:02 43° NNE 08:35:49 10° E daylight
11 Apr - 10:19:27 10° WNW 10:34:24 64° N 10:54:13 10° E daylight
11 Apr - 12:33:46 10° W 12:51:38 62° NNW 13:10:26 10° ENE daylight
11 Apr - 14:50:28 10° W 15:07:57 40° NW 15:23:08 10° NNE daylight
11 Apr - 17:13:45 10° WNW 17:21:33 14° NW 17:28:31 10° NNW daylight
12 Apr - 07:04:10 10° NNW 07:13:21 31° NE 07:26:52 10° E daylight
12 Apr - 09:14:19 10° WNW 09:27:17 58° NNE 09:46:16 10° E daylight
12 Apr - 11:27:31 10° W 11:43:55 65° N 12:03:39 10° ENE daylight
12 Apr - 13:42:56 10° W 14:00:53 50° NNW 14:18:07 10° NE daylight
12 Apr - 16:02:05 10° W 16:15:44 24° NW 16:27:35 10° N daylight
13 Apr - 06:01:47 10° N 06:08:18 19° NE 06:17:02 10° E visible
13 Apr - 08:09:47 10° NW 08:20:48 48° NNE 08:37:54 10° E daylight
13 Apr - 10:21:50 10° WNW 10:36:22 65° N 10:56:12 10° ENE daylight
13 Apr - 12:36:08 10° W 12:53:26 57° NNW 13:12:13 10° NE daylight
13 Apr - 14:53:07 10° W 15:09:21 34° NW 15:24:09 10° NNE daylight
